Weather observations for the past three days for
Fond Du Lac County Airport
Imperial (Metric)
Date Time (cdt) Wind (mph) Vis. (mi.) Weather Sky Cond. Temperature (ºF) Relative Humidity Wind Chill (°F) Heat Index (°F) Pressure Precipitation (in)
Air Dwpt 6 hour altimeter (in) sea level (mb) 1 hr 3 hr 6 hr
Max. Min.
03 14:53 S 5 10.00 Light Rain FEW070 SCT110 78.1 70 76% 80 29.92 1012.8
03 13:53 Calm 10.00 Fair CLR 78.1 68 71% 80 29.95 1013.8
03 12:53 S 9 10.00 Fair CLR 78.1 70 80.1 71.1 76% 80 29.93 1013.0
03 11:53 SW 7 10.00 Fair CLR 79 72 79% 82 29.94 1013.4
03 10:53 S 10 10.00 Mostly Cloudy FEW031 FEW045 BKN110 75 70 84% 75 29.97 1014.4
03 09:53 W 10 10.00 Thunderstorm FEW055 FEW075 SCT100 77 69.1 77% 79 29.94 1013.5
03 08:53 SW 10 10.00 Thunderstorm in Vicinity SCT085 77 70 79% 79 29.92 1012.7
03 07:53 S 5 10.00 Partly Cloudy SCT075 73 71.1 94% 29.9 1012.2
03 06:53 S 5 10.00 A Few Clouds FEW075 71.1 69.1 71.1 68 94% 29.91 1012.4
03 05:53 Calm 10.00 Partly Cloudy SCT075 SCT090 70 69.1 97% 29.91 1012.3
03 04:53 SE 5 10.00 Mostly Cloudy SCT075 BKN090 70 69.1 97% 29.91 1012.3
03 03:53 S 5 9.00 Partly Cloudy SCT070 SCT090 70 69.1 97% 29.91 1012.3
03 02:53 S 3 10.00 A Few Clouds FEW070 71.1 69.1 94% 29.91 1012.3
03 01:53 S 5 10.00 Mostly Cloudy BKN075 70 69.1 97% 29.92 1012.6
03 00:53 Calm 7.00 Fair CLR 68 68 82.9 68 100% 29.92 1012.9
02 23:53 S 3 10.00 Fair CLR 71.1 69.1 94% 29.92 1012.8
02 22:53 Calm 10.00 Fair CLR 71.1 70 96% 29.91 1012.5
02 21:53 Calm 10.00 Fair CLR 72 71.1 97% 29.91 1012.4
02 20:53 Calm 10.00 Fair CLR 75 72 90% 74 29.91 1012.3
02 19:53 Calm 10.00 Fair CLR 77 73 88% 78 29.89 1011.7
02 18:53 Calm 10.00 Fair CLR 82.9 73 86 81 72% 89 29.88 1011.4
02 17:53 N 3 10.00 Fair CLR 84 72 67% 90 29.89 1011.6
02 16:53 Vrbl 3 10.00 Fair CLR 84.9 73 68% 92 29.89 1011.7
02 15:53 SW 5 10.00 Fair CLR 84 72 67% 90 29.9 1012.1
02 14:53 SW 7 10.00 Fair CLR 84.9 72 65% 91 29.91 1012.2
02 13:53 SW 6 10.00 Fair CLR 84 71.1 65% 89 29.91 1012.2
02 12:53 S 9 10.00 Fair CLR 81 69.1 81 68 67% 84 29.92 1012.8
02 11:53 S 10 10.00 A Few Clouds FEW120 79 68 69% 81 29.93 1013.1
02 10:53 S 8 10.00 A Few Clouds FEW100 75 66.9 76% 76 29.94 1013.2
02 09:53 S 6 10.00 Light Rain FEW029 FEW085 SCT110 73 66 79% 29.94 1013.3
02 08:53 S 5 10.00 Fair CLR 71.1 64 79% 29.95 1013.8
02 07:53 SE 5 10.00 A Few Clouds FEW095 70 64 82% 29.96 1014.1
02 06:53 Vrbl 3 10.00 Mostly Cloudy BKN095 68 64 75 66.9 87% 29.96 1014.0 0.01
02 05:53 NE 9 10.00 Mostly Cloudy SCT065 BKN085 68 64.9 90% 29.98 1014.6
02 04:53 SW 3 10.00 A Few Clouds FEW110 69.1 68 96% 29.93 1013.0
02 03:53 S 5 10.00 Fair CLR 70 66.9 90% 29.92 1012.5 0.01 0.01
02 02:53 W 18 G 33 10.00 Thunderstorm in Vicinity Light Rain BKN036 BKN048 OVC080 73.9 69.1 85% 29.98 1014.5
02 01:53 Calm 10.00 Overcast BKN047 BKN055 OVC110 73 69.1 87% 29.94 1013.1
02 00:53 S 3 10.00 Light Rain SCT055 BKN080 OVC110 73.9 68 84 73.9 82% 29.93 1013.0
01 23:53 S 3 10.00 Thunderstorm in Vicinity SCT120 75 73.9 96% 73 29.93 1012.8
01 22:53 Calm 10.00 Fair CLR 77 75 94% 78 29.93 1013.1
01 21:53 W 5 10.00 A Few Clouds FEW110 79 75 88% 83 29.93 1012.9
01 20:53 SW 5 10.00 A Few Clouds FEW055 FEW080 FEW120 80.1 75.9 87% 85 29.92 1012.7
01 19:53 SW 6 10.00 Fair CLR 82 75.9 82% 89 29.91 1012.4
01 18:53 SW 8 10.00 Fair CLR 84 75.9 90 84 77% 93 29.9 1012.0
01 17:53 SW 7 10.00 Fair CLR 84.9 73 68% 92 29.9 1012.0
01 16:53 SW 8 10.00 Partly Cloudy FEW035 SCT044 SCT100 87.1 73.9 65% 95 29.91 1012.2
01 15:53 SW 8 10.00 Fair CLR 88 72 59% 95 29.92 1012.4
01 14:53 W 8 10.00 A Few Clouds FEW035 90 73 58% 98 29.92 1012.6
01 13:53 SW 6 10.00 A Few Clouds FEW035 87.1 73.9 65% 95 29.93 1012.9
01 12:53 W 5 10.00 Mostly Cloudy BKN029 BKN037 87.1 73.9 89.1 72 65% 95 29.93 1012.9
01 11:53 SW 7 10.00 Fair CLR 87.1 73.9 65% 95 29.95 1013.6
01 10:53 Calm 10.00 A Few Clouds FEW022 84.9 75.9 75% 94 29.95 1013.5
01 09:53 S 3 10.00 Fair CLR 81 75.9 85% 87 29.95 1013.7
01 08:53 S 5 8.00 Fair CLR 75.9 73 91% 76 29.95 1013.7
01 07:53 Calm 5.00 Fog/Mist CLR 73 72 96% 29.96 1013.9
01 06:53 Calm 3.00 Fog/Mist CLR 72 71.1 73.9 70 97% 29.94 1013.3
01 05:53 W 6 6.00 Fog/Mist CLR 72 71.1 97% 29.92 1012.7
01 04:53 SW 3 6.00 Fog/Mist FEW025 SCT031 72 71.1 97% 29.92 1012.5
01 03:53 SW 6 8.00 Fair CLR 73 72 96% 29.92 1012.5
01 02:53 SW 6 10.00 A Few Clouds FEW027 73 72 96% 29.91 1012.3
01 01:53 SW 5 10.00 Fair CLR 73.9 72 94% 29.91 1012.4
01 00:53 S 3 8.00 Fair CLR 70 70 82.9 70 100% 29.91 1012.4
31 23:53 S 5 10.00 Fair CLR 73 71.1 94% 29.91 1012.3
31 22:53 S 5 10.00 Fair CLR 75 72 90% 74 29.91 1012.5
31 21:53 S 6 10.00 Fair CLR 75.9 73 91% 76 29.92 1012.6
31 20:53 SW 6 10.00 Fair CLR 78.1 72 82% 80 29.92 1012.6
31 19:53 S 8 10.00 Fair CLR 81 73 77% 86 29.88 1011.4
31 18:53 SW 10 10.00 Fair CLR 82.9 73 89.1 82.9 72% 89 29.88 1011.1
31 17:53 SW 7 10.00 Fair CLR 84 73.9 72% 91 29.87 1010.8
31 16:53 S 8 10.00 Fair CLR 84.9 73 68% 92 29.86 1010.6
31 15:53 SW 9 10.00 Fair CLR 87.1 73 63% 95 29.86 1010.6
Date Time (cdt) Wind (mph) Vis. (mi.) Weather Sky Cond. Air Dwpt Max. Min. Relative Humidity Wind Chill (°F) Heat Index (°F) altimeter (in) sea level (mb) 1 hr 3 hr 6 hr
6 hour
Temperature (ºF) Pressure Precipitation (in)